Time,TemperatureF,DewpointF,PressureIn,WindDirection,WindDirectionDegrees,WindSpeedMPH,WindSpeedGustMPH,Humidity,HourlyPrecipIn,Conditions,Clouds,dailyrainin,SoftwareType,DateUTC
2013-01-23 00:03:00,15.8,14.3,30.16,South,180,0.0,0.0,94,0.00,,,0.00,WUHU21623XXSP,2013-01-23 08:03:00,
2013-01-23 00:08:00,16.0,14.5,30.17,South,180,0.0,0.0,94,0.00,,,0.00,WUHU21623XXSP,2013-01-23 08:08:00,
2013-01-23 00:13:00,16.2,14.7,30.17,South,180,0.0,0.0,94,0.00,,,0.00,WUHU21623XXSP,2013-01-23 08:13:00,
2013-01-23 00:18:00,16.3,14.8,30.16,South,180,0.0,0.0,94,0.00,,,0.00,WUHU21623XXSP,2013-01-23 08:18:00,
2013-01-23 00:23:00,16.3,14.8,30.17,South,180,0.0,0.0,94,0.00,,,0.00,WUHU21623XXSP,2013-01-23 08:23:00,
2013-01-23 00:28:00,16.3,14.8,30.16,South,180,0.0,0.0,94,0.00,,,0.00,WUHU21623XXSP,2013-01-23 08:28:00,
2013-01-23 00:33:00,16.2,14.7,30.15,South,180,0.0,0.0,94,0.00,,,0.00,WUHU21623XXSP,2013-01-23 08:33:00,
2013-01-23 00:38:00,16.3,14.8,30.15,South,180,0.0,0.0,94,0.00,,,0.00,WUHU21623XXSP,2013-01-23 08:38:00,
2013-01-23 00:43:00,16.3,14.8,30.15,South,180,0.0,0.0,94,0.00,,,0.00,WUHU21623XXSP,2013-01-23 08:43:00,
2013-01-23 00:48:00,16.5,15.0,30.16,South,180,0.0,0.0,94,0.00,,,0.00,WUHU21623XXSP,2013-01-23 08:48:00,
2013-01-23 00:53:00,16.9,15.4,30.16,South,180,0.0,0.0,94,0.00,,,0.00,WUHU21623XXSP,2013-01-23 08:53:00,
2013-01-23 00:58:00,17.4,15.9,30.15,South,180,0.0,0.0,94,0.00,,,0.00,WUHU21623XXSP,2013-01-23 08:58:00,
2013-01-23 01:03:00,17.8,16.3,30.15,South,180,0.0,0.0,94,0.00,,,0.00,WUHU21623XXSP,2013-01-23 09:03:00,
2013-01-23 01:08:00,17.8,16.3,30.15,South,180,0.0,0.0,94,0.00,,,0.00,WUHU21623XXSP,2013-01-23 09:08:00,
2013-01-23 01:13:00,18.1,16.6,30.15,South,180,0.0,0.0,94,0.00,,,0.00,WUHU21623XXSP,2013-01-23 09:13:00,
2013-01-23 01:18:00,18.5,17.2,30.15,South,180,0.0,0.0,95,0.00,,,0.00,WUHU21623XXSP,2013-01-23 09:18:00,
2013-01-23 01:23:00,18.9,17.6,30.15,South,180,0.0,0.0,95,0.00,,,0.00,WUHU21623XXSP,2013-01-23 09:23:00,
2013-01-23 01:29:00,19.2,17.9,30.16,South,180,0.0,0.0,95,0.00,,,0.00,WUHU21623XXSP,2013-01-23 09:29:00,
2013-01-23 01:34:00,19.2,17.9,30.15,South,180,0.0,0.0,95,0.00,,,0.00,WUHU21623XXSP,2013-01-23 09:34:00,
2013-01-23 01:39:00,19.2,17.9,30.17,South,180,0.0,0.0,95,0.00,,,0.00,WUHU21623XXSP,2013-01-23 09:39:00,
2013-01-23 01:44:00,19.4,18.1,30.16,South,180,0.0,0.0,95,0.00,,,0.00,WUHU21623XXSP,2013-01-23 09:44:00,
2013-01-23 01:49:00,19.2,17.9,30.17,South,180,0.0,0.0,95,0.00,,,0.00,WUHU21623XXSP,2013-01-23 09:49:00,
2013-01-23 01:54:00,19.2,17.9,30.17,South,180,0.0,0.0,95,0.00,,,0.00,WUHU21623XXSP,2013-01-23 09:54:00,
2013-01-23 01:59:00,19.2,17.9,30.17,South,180,0.0,0.0,95,0.00,,,0.00,WUHU21623XXSP,2013-01-23 09:59:00,
2013-01-23 02:04:00,19.0,17.7,30.17,South,180,0.0,0.0,95,0.00,,,0.00,WUHU21623XXSP,2013-01-23 10:04:00,
2013-01-23 02:09:00,18.9,17.6,30.17,South,180,0.0,0.0,95,0.00,,,0.00,WUHU21623XXSP,2013-01-23 10:09:00,
2013-01-23 02:14:00,18.7,17.4,30.17,South,180,0.0,0.0,95,0.00,,,0.00,WUHU21623XXSP,2013-01-23 10:14:00,
2013-01-23 02:19:00,18.5,17.2,30.16,South,180,0.0,0.0,95,0.00,,,0.00,WUHU21623XXSP,2013-01-23 10:19:00,
2013-01-23 02:24:00,18.1,16.6,30.16,South,180,0.0,0.0,94,0.00,,,0.00,WUHU21623XXSP,2013-01-23 10:24:00,
2013-01-23 02:29:00,17.8,16.3,30.16,South,180,0.0,0.0,94,0.00,,,0.00,WUHU21623XXSP,2013-01-23 10:29:00,
2013-01-23 02:34:00,18.0,16.5,30.15,South,180,0.0,0.0,94,0.00,,,0.00,WUHU21623XXSP,2013-01-23 10:34:00,
2013-01-23 02:39:00,18.0,16.5,30.15,South,180,0.0,0.0,94,0.00,,,0.00,WUHU21623XXSP,2013-01-23 10:39:00,
2013-01-23 02:44:00,18.0,16.5,30.15,South,180,0.0,0.0,94,0.00,,,0.00,WUHU21623XXSP,2013-01-23 10:44:00,
2013-01-23 02:49:00,18.1,16.8,30.14,South,180,0.0,0.0,95,0.00,,,0.00,WUHU21623XXSP,2013-01-23 10:49:00,
2013-01-23 02:54:00,18.3,17.0,30.14,South,180,0.0,0.0,95,0.00,,,0.00,WUHU21623XXSP,2013-01-23 10:54:00,
2013-01-23 02:59:00,18.1,16.8,30.14,South,180,0.0,0.0,95,0.00,,,0.00,WUHU21623XXSP,2013-01-23 10:59:00,
2013-01-23 03:04:00,18.1,16.8,30.14,South,180,0.0,0.0,95,0.00,,,0.00,WUHU21623XXSP,2013-01-23 11:04:00,
2013-01-23 03:09:00,18.3,17.0,30.14,South,180,0.0,0.0,95,0.00,,,0.00,WUHU21623XXSP,2013-01-23 11:09:00,
2013-01-23 03:14:00,18.9,17.6,30.14,South,180,0.0,0.0,95,0.00,,,0.00,WUHU21623XXSP,2013-01-23 11:14:00,
2013-01-23 03:19:00,19.0,17.7,30.13,SSW,202,0.0,0.0,95,0.00,,,0.00,WUHU21623XXSP,2013-01-23 11:19:00,
2013-01-23 03:24:00,19.2,17.9,30.13,SSW,202,0.0,0.0,95,0.00,,,0.00,WUHU21623XXSP,2013-01-23 11:24:00,
2013-01-23 03:29:00,19.6,18.3,30.14,SSW,202,0.0,0.0,95,0.00,,,0.00,WUHU21623XXSP,2013-01-23 11:29:00,
2013-01-23 03:34:00,19.8,18.5,30.14,SSW,202,0.0,0.0,95,0.00,,,0.00,WUHU21623XXSP,2013-01-23 11:34:00,
2013-01-23 03:39:00,19.8,18.5,30.14,SSW,202,0.0,0.0,95,0.00,,,0.00,WUHU21623XXSP,2013-01-23 11:39:00,
2013-01-23 03:44:00,19.8,18.5,30.14,SSW,202,0.0,0.0,95,0.00,,,0.00,WUHU21623XXSP,2013-01-23 11:44:00,
2013-01-23 03:49:00,19.9,18.6,30.15,SSW,202,0.0,0.0,95,0.00,,,0.00,WUHU21623XXSP,2013-01-23 11:49:00,
2013-01-23 03:54:00,19.9,18.6,30.15,SSW,202,0.0,0.0,95,0.00,,,0.00,WUHU21623XXSP,2013-01-23 11:54:00,
2013-01-23 03:59:00,19.9,18.6,30.15,SSW,202,0.0,0.0,95,0.00,,,0.00,WUHU21623XXSP,2013-01-23 11:59:00,
2013-01-23 04:04:00,19.8,18.5,30.14,SSW,202,0.0,0.0,95,0.00,,,0.00,WUHU21623XXSP,2013-01-23 12:04:00,
2013-01-23 04:09:00,19.6,18.3,30.14,SSW,202,0.0,0.0,95,0.00,,,0.00,WUHU21623XXSP,2013-01-23 12:09:00,
2013-01-23 04:14:00,19.6,18.3,30.13,SSW,202,0.0,0.0,95,0.00,,,0.00,WUHU21623XXSP,2013-01-23 12:14:00,
2013-01-23 04:19:00,19.6,18.3,30.13,SSW,202,0.0,0.0,95,0.00,,,0.00,WUHU21623XXSP,2013-01-23 12:19:00,
2013-01-23 04:24:00,19.6,18.3,30.13,SSW,202,0.0,0.0,95,0.00,,,0.00,WUHU21623XXSP,2013-01-23 12:24:00,
2013-01-23 04:29:00,19.6,18.3,30.12,SSW,202,0.0,0.0,95,0.00,,,0.00,WUHU21623XXSP,2013-01-23 12:29:00,
2013-01-23 04:34:00,19.6,18.3,30.12,SSW,202,0.0,0.0,95,0.00,,,0.00,WUHU21623XXSP,2013-01-23 12:34:00,
2013-01-23 04:39:00,19.6,18.3,30.12,SSW,202,0.0,0.0,95,0.00,,,0.00,WUHU21623XXSP,2013-01-23 12:39:00,
2013-01-23 04:44:00,19.6,18.3,30.12,SSW,202,0.0,0.0,95,0.00,,,0.00,WUHU21623XXSP,2013-01-23 12:44:00,
2013-01-23 04:49:00,19.9,18.6,30.11,SSW,202,0.0,0.0,95,0.00,,,0.00,WUHU21623XXSP,2013-01-23 12:49:00,
2013-01-23 04:54:00,19.9,18.6,30.11,SSW,202,0.0,0.0,95,0.00,,,0.00,WUHU21623XXSP,2013-01-23 12:54:00,
2013-01-23 04:59:00,19.9,18.6,30.12,SSW,202,0.0,0.0,95,0.00,,,0.00,WUHU21623XXSP,2013-01-23 12:59:00,
2013-01-23 05:04:00,20.1,18.8,30.12,SSW,202,0.0,0.0,95,0.00,,,0.00,WUHU21623XXSP,2013-01-23 13:04:00,
2013-01-23 05:09:00,20.3,19.0,30.12,SSW,202,0.0,0.0,95,0.00,,,0.00,WUHU21623XXSP,2013-01-23 13:09:00,
2013-01-23 05:14:00,20.1,18.8,30.12,SSW,202,0.0,0.0,95,0.00,,,0.00,WUHU21623XXSP,2013-01-23 13:14:00,
2013-01-23 05:19:00,20.1,18.8,30.11,SSW,202,0.0,0.0,95,0.00,,,0.00,WUHU21623XXSP,2013-01-23 13:19:00,
2013-01-23 05:24:00,20.1,18.8,30.11,SSW,202,0.0,0.0,95,0.00,,,0.00,WUHU21623XXSP,2013-01-23 13:24:00,
2013-01-23 05:29:00,20.5,19.2,30.10,WSW,247,0.0,0.0,95,0.00,,,0.00,WUHU21623XXSP,2013-01-23 13:29:00,
2013-01-23 05:34:00,20.8,19.5,30.10,West,270,0.0,0.0,95,0.00,,,0.00,WUHU21623XXSP,2013-01-23 13:34:00,
2013-01-23 05:39:00,21.0,19.7,30.10,West,270,0.0,0.0,95,0.00,,,0.00,WUHU21623XXSP,2013-01-23 13:39:00,
2013-01-23 05:44:00,21.2,20.1,30.10,West,270,0.0,0.0,96,0.00,,,0.00,WUHU21623XXSP,2013-01-23 13:44:00,
2013-01-23 05:49:00,21.4,20.3,30.11,West,270,0.0,0.0,96,0.00,,,0.00,WUHU21623XXSP,2013-01-23 13:49:00,
2013-01-23 05:54:00,21.4,20.1,30.11,West,270,0.0,0.0,95,0.00,,,0.00,WUHU21623XXSP,2013-01-23 13:54:00,
2013-01-23 05:59:00,21.4,20.1,30.10,West,270,0.0,0.0,95,0.00,,,0.00,WUHU21623XXSP,2013-01-23 13:59:00,
2013-01-23 06:04:00,21.0,19.7,30.11,West,270,0.0,0.0,95,0.00,,,0.00,WUHU21623XXSP,2013-01-23 14:04:00,
2013-01-23 06:09:00,21.0,19.7,30.10,West,270,0.0,0.0,95,0.00,,,0.00,WUHU21623XXSP,2013-01-23 14:09:00,
2013-01-23 06:14:00,21.0,19.7,30.11,West,270,0.0,0.0,95,0.00,,,0.00,WUHU21623XXSP,2013-01-23 14:14:00,
2013-01-23 06:19:00,20.8,19.5,30.11,West,270,0.0,0.0,95,0.00,,,0.00,WUHU21623XXSP,2013-01-23 14:19:00,
2013-01-23 06:24:00,20.5,19.2,30.11,West,270,0.0,0.0,95,0.00,,,0.00,WUHU21623XXSP,2013-01-23 14:24:00,
2013-01-23 06:29:00,20.1,18.8,30.10,West,270,0.0,0.0,95,0.00,,,0.00,WUHU21623XXSP,2013-01-23 14:29:00,
2013-01-23 06:34:00,19.4,18.1,30.10,West,270,0.0,0.0,95,0.00,,,0.00,WUHU21623XXSP,2013-01-23 14:34:00,
2013-01-23 06:39:00,19.0,17.7,30.10,West,270,0.0,0.0,95,0.00,,,0.00,WUHU21623XXSP,2013-01-23 14:39:00,
2013-01-23 06:44:00,18.3,16.8,30.10,West,270,0.0,0.0,94,0.00,,,0.00,WUHU21623XXSP,2013-01-23 14:44:00,
2013-01-23 06:49:00,18.1,16.6,30.09,West,270,0.0,0.0,94,0.00,,,0.00,WUHU21623XXSP,2013-01-23 14:49:00,
2013-01-23 06:54:00,18.1,16.6,30.10,West,270,0.0,0.0,94,0.00,,,0.00,WUHU21623XXSP,2013-01-23 14:54:00,
2013-01-23 06:59:00,18.1,16.8,30.10,West,270,0.0,0.0,95,0.00,,,0.00,WUHU21623XXSP,2013-01-23 14:59:00,
2013-01-23 07:04:00,18.1,16.8,30.10,West,270,0.0,0.0,95,0.00,,,0.00,WUHU21623XXSP,2013-01-23 15:04:00,
2013-01-23 07:09:00,18.3,17.0,30.10,West,270,0.0,0.0,95,0.00,,,0.00,WUHU21623XXSP,2013-01-23 15:09:00,
2013-01-23 07:14:00,17.8,16.3,30.09,West,270,0.0,0.0,94,0.00,,,0.00,WUHU21623XXSP,2013-01-23 15:14:00,
2013-01-23 07:19:00,17.2,15.7,30.09,West,270,0.0,0.0,94,0.00,,,0.00,WUHU21623XXSP,2013-01-23 15:19:00,
2013-01-23 07:24:00,16.9,15.4,30.09,West,270,0.0,0.0,94,0.00,,,0.00,WUHU21623XXSP,2013-01-23 15:24:00,
2013-01-23 07:29:00,16.3,14.8,30.09,West,270,0.0,0.0,94,0.00,,,0.00,WUHU21623XXSP,2013-01-23 15:29:00,
2013-01-23 07:34:00,16.7,15.2,30.09,West,270,0.0,0.0,94,0.00,,,0.00,WUHU21623XXSP,2013-01-23 15:34:00,
2013-01-23 07:39:00,16.5,15.2,30.09,West,270,0.0,0.0,95,0.00,,,0.00,WUHU21623XXSP,2013-01-23 15:39:00,
2013-01-23 07:44:00,16.2,14.9,30.09,West,270,0.0,0.0,95,0.00,,,0.00,WUHU21623XXSP,2013-01-23 15:44:00,
2013-01-23 07:49:00,16.2,14.9,30.09,West,270,0.0,0.0,95,0.00,,,0.00,WUHU21623XXSP,2013-01-23 15:49:00,
2013-01-23 07:54:00,16.2,14.9,30.09,West,270,0.0,0.0,95,0.00,,,0.00,WUHU21623XXSP,2013-01-23 15:54:00,
2013-01-23 07:59:00,16.2,14.9,30.08,West,270,0.0,0.0,95,0.00,,,0.00,WUHU21623XXSP,2013-01-23 15:59:00,
2013-01-23 08:04:00,16.3,15.0,30.09,West,270,0.0,0.0,95,0.00,,,0.00,WUHU21623XXSP,2013-01-23 16:04:00,
2013-01-23 08:09:00,16.7,15.4,30.09,West,270,0.0,0.0,95,0.00,,,0.00,WUHU21623XXSP,2013-01-23 16:09:00,
2013-01-23 08:14:00,16.9,15.6,30.09,West,270,0.0,0.0,95,0.00,,,0.00,WUHU21623XXSP,2013-01-23 16:14:00,
2013-01-23 08:19:00,16.7,15.4,30.09,West,270,0.0,0.0,95,0.00,,,0.00,WUHU21623XXSP,2013-01-23 16:19:00,
2013-01-23 08:24:00,17.4,16.1,30.09,West,270,0.0,0.0,95,0.00,,,0.00,WUHU21623XXSP,2013-01-23 16:24:00,
2013-01-23 08:29:00,17.8,16.5,30.09,West,270,0.0,0.0,95,0.00,,,0.00,WUHU21623XXSP,2013-01-23 16:29:00,
2013-01-23 08:34:00,18.3,17.3,30.08,West,270,0.0,0.0,96,0.00,,,0.00,WUHU21623XXSP,2013-01-23 16:34:00,
2013-01-23 08:35:00,18.5,17.5,30.08,West,270,0.0,0.0,96,0.00,,,0.00,WUHU21623XXSP,2013-01-23 16:35:00,
2013-01-23 08:41:00,19.6,18.6,30.09,West,270,0.0,0.0,96,0.00,,,0.00,WUHU21623XXSP,2013-01-23 16:41:00,
2013-01-23 08:45:00,19.9,18.9,30.09,West,270,0.0,0.0,96,0.00,,,0.00,WUHU21623XXSP,2013-01-23 16:45:00,
2013-01-23 08:52:00,21.0,20.0,30.08,West,270,0.0,0.0,96,0.00,,,0.00,WUHU21623XXSP,2013-01-23 16:52:00,
2013-01-23 09:07:00,21.9,20.8,30.08,West,270,0.0,0.0,96,0.00,,,0.00,WUHU21623XXSP,2013-01-23 17:07:00,
2013-01-23 09:12:00,25.7,24.9,30.09,West,270,0.0,0.0,97,0.00,,,0.00,WUHU21623XXSP,2013-01-23 17:12:00,
2013-01-23 09:17:00,26.4,25.6,30.09,West,270,0.0,0.0,97,0.00,,,0.00,WUHU21623XXSP,2013-01-23 17:17:00,
2013-01-23 09:22:00,27.1,26.0,30.09,West,270,0.0,0.0,96,0.00,,,0.00,WUHU21623XXSP,2013-01-23 17:22:00,
2013-01-23 09:27:00,28.4,27.1,30.09,West,270,0.0,0.0,95,0.00,,,0.00,WUHU21623XXSP,2013-01-23 17:27:00,
2013-01-23 09:32:00,29.5,28.1,30.09,West,270,0.0,0.0,95,0.00,,,0.00,WUHU21623XXSP,2013-01-23 17:32:00,
2013-01-23 09:37:00,30.7,29.1,30.08,West,270,0.0,0.0,94,0.00,,,0.00,WUHU21623XXSP,2013-01-23 17:37:00,
2013-01-23 09:42:00,32.9,31.0,30.09,West,270,0.0,0.0,93,0.00,,,0.00,WUHU21623XXSP,2013-01-23 17:42:00,
2013-01-23 09:47:00,33.6,30.9,30.08,West,270,0.0,0.0,90,0.00,,,0.00,WUHU21623XXSP,2013-01-23 17:47:00,
2013-01-23 09:52:00,33.8,30.5,30.08,West,270,0.0,0.0,88,0.00,,,0.00,WUHU21623XXSP,2013-01-23 17:52:00,
2013-01-23 09:57:00,34.2,30.4,30.08,WSW,247,0.0,0.0,86,0.00,,,0.00,WUHU21623XXSP,2013-01-23 17:57:00,
2013-01-23 10:02:00,34.0,29.3,30.08,West,270,0.0,0.0,83,0.00,,,0.00,WUHU21623XXSP,2013-01-23 18:02:00,
2013-01-23 10:07:00,33.4,28.4,30.08,WSW,247,0.0,0.0,82,0.00,,,0.00,WUHU21623XXSP,2013-01-23 18:07:00,
2013-01-23 10:12:00,34.2,29.2,30.08,WSW,247,0.0,0.0,82,0.00,,,0.00,WUHU21623XXSP,2013-01-23 18:12:00,
2013-01-23 10:17:00,34.9,29.6,30.08,West,270,0.0,0.0,81,0.00,,,0.00,WUHU21623XXSP,2013-01-23 18:17:00,
2013-01-23 10:22:00,35.4,29.8,30.09,West,270,0.0,0.0,80,0.00,,,0.00,WUHU21623XXSP,2013-01-23 18:22:00,
2013-01-23 10:27:00,35.4,29.8,30.07,West,270,0.0,0.0,80,0.00,,,0.00,WUHU21623XXSP,2013-01-23 18:27:00,
2013-01-23 10:32:00,35.2,29.6,30.07,West,270,0.0,0.0,80,0.00,,,0.00,WUHU21623XXSP,2013-01-23 18:32:00,
2013-01-23 10:37:00,34.5,28.6,30.07,West,270,0.0,0.0,79,0.00,,,0.00,WUHU21623XXSP,2013-01-23 18:37:00,
2013-01-23 10:42:00,34.2,28.6,30.07,West,270,0.0,0.0,80,0.00,,,0.00,WUHU21623XXSP,2013-01-23 18:42:00,
2013-01-23 10:47:00,34.3,28.7,30.07,West,270,0.0,0.0,80,0.00,,,0.00,WUHU21623XXSP,2013-01-23 18:47:00,
2013-01-23 10:52:00,34.7,29.1,30.07,West,270,0.0,0.0,80,0.00,,,0.00,WUHU21623XXSP,2013-01-23 18:52:00,
2013-01-23 10:57:00,34.9,29.0,30.06,West,270,0.0,0.0,79,0.00,,,0.00,WUHU21623XXSP,2013-01-23 18:57:00,
2013-01-23 11:02:00,34.2,28.3,30.06,West,270,0.0,0.0,79,0.00,,,0.00,WUHU21623XXSP,2013-01-23 19:02:00,
2013-01-23 11:07:00,33.4,27.5,30.06,West,270,0.0,0.0,79,0.00,,,0.00,WUHU21623XXSP,2013-01-23 19:07:00,
2013-01-23 11:12:00,32.7,27.2,30.06,West,270,0.0,0.0,80,0.00,,,0.00,WUHU21623XXSP,2013-01-23 19:12:00,
2013-01-23 11:17:00,32.5,27.0,30.05,West,270,0.0,0.0,80,0.00,,,0.00,WUHU21623XXSP,2013-01-23 19:17:00,
2013-01-23 11:22:00,32.2,26.7,30.06,West,270,0.0,0.0,80,0.00,,,0.00,WUHU21623XXSP,2013-01-23 19:22:00,
2013-01-23 11:27:00,31.8,26.3,30.05,West,270,0.0,0.0,80,0.00,,,0.00,WUHU21623XXSP,2013-01-23 19:27:00,
2013-01-23 11:32:00,31.5,26.3,30.05,WSW,247,0.0,0.0,81,0.00,,,0.00,WUHU21623XXSP,2013-01-23 19:32:00,
2013-01-23 11:37:00,31.1,25.9,30.05,WSW,247,0.0,0.0,81,0.00,,,0.00,WUHU21623XXSP,2013-01-23 19:37:00,
2013-01-23 11:42:00,30.7,25.8,30.05,WSW,247,0.0,0.0,82,0.00,,,0.00,WUHU21623XXSP,2013-01-23 19:42:00,
2013-01-23 11:47:00,30.7,25.8,30.04,WSW,247,0.0,0.0,82,0.00,,,0.00,WUHU21623XXSP,2013-01-23 19:47:00,
2013-01-23 11:52:00,30.6,25.7,30.04,WSW,247,0.0,0.0,82,0.00,,,0.00,WUHU21623XXSP,2013-01-23 19:52:00,
2013-01-23 11:57:00,30.4,25.5,30.04,WSW,247,0.0,0.0,82,0.00,,,0.00,WUHU21623XXSP,2013-01-23 19:57:00,
2013-01-23 12:02:00,30.2,25.6,30.04,WSW,247,0.0,0.0,83,0.00,,,0.00,WUHU21623XXSP,2013-01-23 20:02:00,
2013-01-23 12:07:00,30.4,25.8,30.04,WSW,247,0.0,0.0,83,0.00,,,0.00,WUHU21623XXSP,2013-01-23 20:07:00,
2013-01-23 12:11:00,30.9,26.6,30.03,WSW,247,0.0,0.0,84,0.00,,,0.00,WUHU21623XXSP,2013-01-23 20:11:00,
2013-01-23 12:15:00,31.3,26.7,30.04,WSW,247,0.0,0.0,83,0.00,,,0.00,WUHU21623XXSP,2013-01-23 20:15:00,
2013-01-23 12:22:00,31.3,26.7,30.03,WSW,247,0.0,0.0,83,0.00,,,0.00,WUHU21623XXSP,2013-01-23 20:22:00,
2013-01-23 12:37:00,31.3,26.7,30.04,WSW,247,0.0,0.0,83,0.00,,,0.00,WUHU21623XXSP,2013-01-23 20:37:00,
2013-01-23 12:42:00,31.3,26.4,30.04,WSW,247,0.0,0.0,82,0.00,,,0.00,WUHU21623XXSP,2013-01-23 20:42:00,
2013-01-23 12:47:00,30.7,25.8,30.03,SSW,202,0.0,0.0,82,0.00,,,0.00,WUHU21623XXSP,2013-01-23 20:47:00,
2013-01-23 12:52:00,30.4,25.8,30.02,SSW,202,0.0,0.0,83,0.00,,,0.00,WUHU21623XXSP,2013-01-23 20:52:00,
2013-01-23 12:57:00,30.0,25.7,30.02,SSW,202,0.0,0.0,84,0.00,,,0.00,WUHU21623XXSP,2013-01-23 20:57:00,
2013-01-23 13:02:00,30.0,25.7,30.01,SSW,202,0.0,0.0,84,0.00,,,0.00,WUHU21623XXSP,2013-01-23 21:02:00,
2013-01-23 13:07:00,30.0,26.0,30.00,SSW,202,0.0,0.0,85,0.00,,,0.00,WUHU21623XXSP,2013-01-23 21:07:00,
2013-01-23 13:12:00,30.0,26.0,30.01,SSW,202,0.0,0.0,85,0.00,,,0.00,WUHU21623XXSP,2013-01-23 21:12:00,
2013-01-23 13:17:00,30.4,26.3,30.01,SSW,202,0.0,0.0,85,0.00,,,0.00,WUHU21623XXSP,2013-01-23 21:17:00,
2013-01-23 13:22:00,30.6,26.3,30.01,SSW,202,0.0,0.0,84,0.00,,,0.00,WUHU21623XXSP,2013-01-23 21:22:00,
2013-01-23 13:27:00,30.4,26.1,30.00,SSW,202,0.0,0.0,84,0.00,,,0.00,WUHU21623XXSP,2013-01-23 21:27:00,
2013-01-23 13:32:00,30.4,26.1,30.00,SSW,202,0.0,0.0,84,0.00,,,0.00,WUHU21623XXSP,2013-01-23 21:32:00,
2013-01-23 13:37:00,30.6,26.3,30.00,SSW,202,0.0,0.0,84,0.00,,,0.00,WUHU21623XXSP,2013-01-23 21:37:00,
2013-01-23 13:42:00,30.7,26.4,30.00,SSW,202,0.0,0.0,84,0.00,,,0.00,WUHU21623XXSP,2013-01-23 21:42:00,
2013-01-23 13:47:00,30.6,26.3,30.00,SSW,202,0.0,0.0,84,0.00,,,0.00,WUHU21623XXSP,2013-01-23 21:47:00,
2013-01-23 13:52:00,30.7,26.4,30.00,SSW,202,0.0,0.0,84,0.00,,,0.00,WUHU21623XXSP,2013-01-23 21:52:00,
2013-01-23 13:57:00,30.7,26.6,30.01,SSW,202,0.0,0.0,85,0.00,,,0.00,WUHU21623XXSP,2013-01-23 21:57:00,
2013-01-23 14:02:00,30.7,26.6,30.01,SSW,202,0.0,0.0,85,0.00,,,0.00,WUHU21623XXSP,2013-01-23 22:02:00,
2013-01-23 14:07:00,30.9,26.8,30.01,SSW,202,0.0,0.0,85,0.00,,,0.00,WUHU21623XXSP,2013-01-23 22:07:00,
2013-01-23 14:12:00,31.1,27.0,30.01,SSW,202,0.0,0.0,85,0.00,,,0.00,WUHU21623XXSP,2013-01-23 22:12:00,
2013-01-23 14:17:00,31.3,27.2,30.01,SSW,202,0.0,0.0,85,0.00,,,0.00,WUHU21623XXSP,2013-01-23 22:17:00,
2013-01-23 14:20:00,31.1,27.0,30.01,SSW,202,0.0,0.0,85,0.00,,,0.00,WUHU21623XXSP,2013-01-23 22:20:00,
2013-01-23 14:24:00,31.3,27.2,30.02,SSW,202,0.0,0.0,85,0.00,,,0.00,WUHU21623XXSP,2013-01-23 22:24:00,
2013-01-23 14:30:00,31.6,27.5,30.01,SSW,202,0.0,0.0,85,0.00,,,0.00,WUHU21623XXSP,2013-01-23 22:30:00,
2013-01-23 14:37:00,31.6,27.5,30.01,SSW,202,0.0,0.0,85,0.00,,,0.00,WUHU21623XXSP,2013-01-23 22:37:00,
2013-01-23 14:51:00,31.8,27.7,30.02,SSW,202,0.0,0.0,85,0.00,,,0.00,WUHU21623XXSP,2013-01-23 22:51:00,
2013-01-23 14:56:00,31.3,27.2,30.00,SSW,202,0.0,0.0,85,0.00,,,0.00,WUHU21623XXSP,2013-01-23 22:56:00,
2013-01-23 15:01:00,30.7,26.6,30.01,SSW,202,0.0,0.0,85,0.00,,,0.00,WUHU21623XXSP,2013-01-23 23:01:00,
2013-01-23 15:06:00,30.6,26.5,30.01,SSW,202,0.0,0.0,85,0.00,,,0.00,WUHU21623XXSP,2013-01-23 23:06:00,
2013-01-23 15:11:00,30.4,26.6,30.01,SSW,202,0.0,0.0,86,0.00,,,0.00,WUHU21623XXSP,2013-01-23 23:11:00,
2013-01-23 15:16:00,30.0,26.5,30.01,SSW,202,0.0,0.0,87,0.00,,,0.00,WUHU21623XXSP,2013-01-23 23:16:00,
2013-01-23 15:21:00,29.8,26.3,30.01,SSW,202,0.0,0.0,87,0.00,,,0.00,WUHU21623XXSP,2013-01-23 23:21:00,
2013-01-23 15:26:00,29.5,26.3,30.00,SSW,202,0.0,0.0,88,0.00,,,0.00,WUHU21623XXSP,2013-01-23 23:26:00,
2013-01-23 15:31:00,29.1,26.2,30.00,SSW,202,0.0,0.0,89,0.00,,,0.00,WUHU21623XXSP,2013-01-23 23:31:00,
2013-01-23 15:36:00,28.8,26.1,30.00,SSW,202,0.0,0.0,90,0.00,,,0.00,WUHU21623XXSP,2013-01-23 23:36:00,
2013-01-23 15:41:00,28.4,26.0,30.00,SSW,202,0.0,0.0,91,0.00,,,0.00,WUHU21623XXSP,2013-01-23 23:41:00,
2013-01-23 15:46:00,28.2,25.8,30.00,SSW,202,0.0,0.0,91,0.00,,,0.00,WUHU21623XXSP,2013-01-23 23:46:00,
2013-01-23 15:51:00,28.2,25.8,30.01,SSW,202,0.0,0.0,91,0.00,,,0.00,WUHU21623XXSP,2013-01-23 23:51:00,
2013-01-23 15:56:00,28.0,25.9,30.01,SSW,202,0.0,0.0,92,0.00,,,0.00,WUHU21623XXSP,2013-01-23 23:56:00,
2013-01-23 16:01:00,28.0,25.9,30.01,SSW,202,0.0,0.0,92,0.00,,,0.00,WUHU21623XXSP,2013-01-24 00:01:00,
2013-01-23 16:06:00,28.0,25.9,30.01,SSW,202,0.0,0.0,92,0.00,,,0.00,WUHU21623XXSP,2013-01-24 00:06:00,
2013-01-23 16:11:00,28.0,25.9,30.01,SSW,202,0.0,0.0,92,0.00,,,0.00,WUHU21623XXSP,2013-01-24 00:11:00,
2013-01-23 16:16:00,28.0,25.9,30.01,SSW,202,0.0,0.0,92,0.00,,,0.00,WUHU21623XXSP,2013-01-24 00:16:00,
2013-01-23 16:21:00,28.0,26.1,30.01,SSW,202,0.0,0.0,93,0.00,,,0.00,WUHU21623XXSP,2013-01-24 00:21:00,
2013-01-23 16:26:00,27.9,26.0,30.00,SSW,202,0.0,0.0,93,0.00,,,0.00,WUHU21623XXSP,2013-01-24 00:26:00,
2013-01-23 16:31:00,27.7,25.8,30.00,SSW,202,0.0,0.0,93,0.00,,,0.00,WUHU21623XXSP,2013-01-24 00:31:00,
2013-01-23 16:36:00,27.7,26.1,30.00,SSW,202,0.0,0.0,94,0.00,,,0.00,WUHU21623XXSP,2013-01-24 00:36:00,
2013-01-23 16:41:00,27.5,25.9,30.00,SSW,202,0.0,0.0,94,0.00,,,0.00,WUHU21623XXSP,2013-01-24 00:41:00,
2013-01-23 16:46:00,27.5,25.9,29.99,SSW,202,0.0,0.0,94,0.00,,,0.00,WUHU21623XXSP,2013-01-24 00:46:00,
2013-01-23 16:51:00,27.5,25.9,29.99,SSW,202,0.0,0.0,94,0.00,,,0.00,WUHU21623XXSP,2013-01-24 00:51:00,
2013-01-23 16:56:00,27.7,26.4,29.99,SSW,202,0.0,0.0,95,0.00,,,0.00,WUHU21623XXSP,2013-01-24 00:56:00,
2013-01-23 17:01:00,27.7,26.4,29.99,SSW,202,0.0,0.0,95,0.00,,,0.00,WUHU21623XXSP,2013-01-24 01:01:00,
2013-01-23 17:06:00,28.0,26.9,29.99,SSW,202,0.0,0.0,96,0.00,,,0.00,WUHU21623XXSP,2013-01-24 01:06:00,
2013-01-23 17:11:00,28.0,26.9,29.99,SSW,202,0.0,0.0,96,0.00,,,0.00,WUHU21623XXSP,2013-01-24 01:11:00,
2013-01-23 17:16:00,28.0,26.9,29.99,SSW,202,0.0,0.0,96,0.00,,,0.00,WUHU21623XXSP,2013-01-24 01:16:00,
2013-01-23 17:21:00,28.0,26.9,29.99,SSW,202,0.0,0.0,96,0.00,,,0.00,WUHU21623XXSP,2013-01-24 01:21:00,
2013-01-23 17:26:00,28.2,27.1,30.00,SSW,202,0.0,0.0,96,0.00,,,0.00,WUHU21623XXSP,2013-01-24 01:26:00,
2013-01-23 17:31:00,28.2,27.1,30.00,SSW,202,0.0,0.0,96,0.00,,,0.00,WUHU21623XXSP,2013-01-24 01:31:00,
2013-01-23 17:36:00,28.2,27.4,29.99,SSW,202,0.0,0.0,97,0.00,,,0.00,WUHU21623XXSP,2013-01-24 01:36:00,
2013-01-23 17:41:00,28.0,27.2,29.99,SSW,202,0.0,0.0,97,0.00,,,0.00,WUHU21623XXSP,2013-01-24 01:41:00,
2013-01-23 17:46:00,28.0,27.2,29.99,SSW,202,0.0,0.0,97,0.00,,,0.00,WUHU21623XXSP,2013-01-24 01:46:00,
2013-01-23 17:51:00,28.0,27.2,29.99,SSW,202,0.0,0.0,97,0.00,,,0.00,WUHU21623XXSP,2013-01-24 01:51:00,
2013-01-23 17:56:00,28.0,26.9,29.98,SSW,202,0.0,0.0,96,0.00,,,0.00,WUHU21623XXSP,2013-01-24 01:56:00,
2013-01-23 18:01:00,28.0,26.9,29.98,SSW,202,0.0,0.0,96,0.00,,,0.00,WUHU21623XXSP,2013-01-24 02:01:00,
2013-01-23 18:06:00,28.0,26.9,29.98,SSW,202,0.0,0.0,96,0.00,,,0.00,WUHU21623XXSP,2013-01-24 02:06:00,
2013-01-23 18:11:00,28.0,26.9,29.97,SSW,202,0.0,0.0,96,0.00,,,0.00,WUHU21623XXSP,2013-01-24 02:11:00,
2013-01-23 18:16:00,28.0,26.9,29.97,SSW,202,0.0,0.0,96,0.00,,,0.00,WUHU21623XXSP,2013-01-24 02:16:00,
2013-01-23 18:21:00,28.0,26.9,29.97,SSW,202,0.0,0.0,96,0.00,,,0.00,WUHU21623XXSP,2013-01-24 02:21:00,
2013-01-23 18:26:00,28.0,27.2,29.96,SSW,202,0.0,0.0,97,0.00,,,0.00,WUHU21623XXSP,2013-01-24 02:26:00,
2013-01-23 18:31:00,28.0,27.2,29.96,SSW,202,0.0,0.0,97,0.00,,,0.00,WUHU21623XXSP,2013-01-24 02:31:00,
2013-01-23 18:36:00,28.0,27.2,29.96,SSW,202,0.0,0.0,97,0.00,,,0.00,WUHU21623XXSP,2013-01-24 02:36:00,
2013-01-23 18:41:00,28.0,27.2,29.96,SSW,202,0.0,0.0,97,0.00,,,0.00,WUHU21623XXSP,2013-01-24 02:41:00,
2013-01-23 18:46:00,28.0,27.2,29.96,SSW,202,0.0,0.0,97,0.00,,,0.00,WUHU21623XXSP,2013-01-24 02:46:00,
2013-01-23 18:51:00,28.0,27.2,29.96,SSW,202,0.0,0.0,97,0.00,,,0.00,WUHU21623XXSP,2013-01-24 02:51:00,
2013-01-23 18:56:00,28.2,27.4,29.97,SSW,202,0.0,0.0,97,0.00,,,0.00,WUHU21623XXSP,2013-01-24 02:56:00,
2013-01-23 19:01:00,28.2,27.4,29.97,SSW,202,0.0,0.0,97,0.00,,,0.00,WUHU21623XXSP,2013-01-24 03:01:00,
2013-01-23 19:06:00,28.2,27.4,29.97,SSW,202,0.0,0.0,97,0.00,,,0.00,WUHU21623XXSP,2013-01-24 03:06:00,
2013-01-23 19:11:00,28.2,27.4,29.97,SSW,202,0.0,0.0,97,0.00,,,0.00,WUHU21623XXSP,2013-01-24 03:11:00,
2013-01-23 19:16:00,28.2,27.4,29.97,SSW,202,0.0,0.0,97,0.00,,,0.00,WUHU21623XXSP,2013-01-24 03:16:00,
2013-01-23 19:21:00,28.2,27.4,29.97,SSW,202,0.0,0.0,97,0.00,,,0.00,WUHU21623XXSP,2013-01-24 03:21:00,
2013-01-23 19:26:00,28.4,27.6,29.97,SSW,202,0.0,0.0,97,0.00,,,0.00,WUHU21623XXSP,2013-01-24 03:26:00,
2013-01-23 19:31:00,28.6,27.8,29.97,SSW,202,0.0,0.0,97,0.00,,,0.00,WUHU21623XXSP,2013-01-24 03:31:00,
2013-01-23 19:36:00,28.8,28.0,29.97,SSW,202,0.0,0.0,97,0.00,,,0.00,WUHU21623XXSP,2013-01-24 03:36:00,
2013-01-23 19:41:00,28.8,28.0,29.96,SSW,202,0.0,0.0,97,0.00,,,0.00,WUHU21623XXSP,2013-01-24 03:41:00,
2013-01-23 19:46:00,28.8,28.0,29.96,SSW,202,0.0,0.0,97,0.00,,,0.00,WUHU21623XXSP,2013-01-24 03:46:00,
2013-01-23 19:51:00,28.9,28.3,29.96,SSW,202,0.0,0.0,98,0.00,,,0.00,WUHU21623XXSP,2013-01-24 03:51:00,
2013-01-23 19:56:00,29.1,28.5,29.95,SSW,202,0.0,0.0,98,0.00,,,0.00,WUHU21623XXSP,2013-01-24 03:56:00,
2013-01-23 20:01:00,29.1,28.5,29.95,SSW,202,0.0,0.0,98,0.00,,,0.00,WUHU21623XXSP,2013-01-24 04:01:00,
2013-01-23 20:06:00,29.1,28.5,29.96,SSW,202,0.0,0.0,98,0.00,,,0.00,WUHU21623XXSP,2013-01-24 04:06:00,
2013-01-23 20:11:00,29.5,28.9,29.96,SSW,202,0.0,0.0,98,0.00,,,0.00,WUHU21623XXSP,2013-01-24 04:11:00,
2013-01-23 20:16:00,29.7,29.1,29.96,SSW,202,0.0,0.0,98,0.00,,,0.00,WUHU21623XXSP,2013-01-24 04:16:00,
2013-01-23 20:21:00,29.8,29.5,29.97,SSW,202,0.0,0.0,99,0.00,,,0.00,WUHU21623XXSP,2013-01-24 04:21:00,
2013-01-23 20:26:00,29.8,29.5,29.98,SSW,202,0.0,0.0,99,0.00,,,0.00,WUHU21623XXSP,2013-01-24 04:26:00,
2013-01-23 20:31:00,30.0,29.7,29.98,SSW,202,0.0,0.0,99,0.00,,,0.00,WUHU21623XXSP,2013-01-24 04:31:00,
2013-01-23 20:36:00,30.0,29.7,29.98,SSW,202,0.0,0.0,99,0.00,,,0.00,WUHU21623XXSP,2013-01-24 04:36:00,
2013-01-23 20:41:00,30.0,29.7,29.98,SSW,202,0.0,0.0,99,0.00,,,0.00,WUHU21623XXSP,2013-01-24 04:41:00,
2013-01-23 20:46:00,30.2,29.9,29.98,SSW,202,0.0,0.0,99,0.00,,,0.00,WUHU21623XXSP,2013-01-24 04:46:00,
2013-01-23 20:51:00,30.4,30.1,29.98,SSW,202,0.0,0.0,99,0.00,,,0.00,WUHU21623XXSP,2013-01-24 04:51:00,
2013-01-23 20:56:00,30.7,30.4,29.99,SSW,202,0.0,0.0,99,0.00,,,0.00,WUHU21623XXSP,2013-01-24 04:56:00,
2013-01-23 21:00:00,30.7,30.4,29.99,SSW,202,0.0,0.0,99,0.00,,,0.00,WUHU21623XXSP,2013-01-24 05:00:00,
2013-01-23 21:01:00,30.9,30.6,29.99,SSW,202,0.0,0.0,99,0.00,,,0.00,WUHU21623XXSP,2013-01-24 05:01:00,
2013-01-23 21:02:00,30.9,30.6,29.99,SSW,202,0.0,0.0,99,0.00,,,0.00,WUHU21623XXSP,2013-01-24 05:02:00,
2013-01-23 21:07:00,30.9,30.6,29.99,SSW,202,0.0,0.0,99,0.00,,,0.00,WUHU21623XXSP,2013-01-24 05:07:00,
2013-01-23 21:12:00,30.7,30.4,29.99,SSW,202,0.0,0.0,99,0.00,,,0.00,WUHU21623XXSP,2013-01-24 05:12:00,
2013-01-23 21:17:00,30.6,30.3,30.00,SSW,202,0.0,0.0,99,0.00,,,0.00,WUHU21623XXSP,2013-01-24 05:17:00,
2013-01-23 21:22:00,29.8,29.5,30.00,SSW,202,0.0,0.0,99,0.00,,,0.00,WUHU21623XXSP,2013-01-24 05:22:00,
2013-01-23 21:27:00,29.1,28.5,30.01,SSW,202,0.0,0.0,98,0.00,,,0.00,WUHU21623XXSP,2013-01-24 05:27:00,
2013-01-23 21:32:00,28.6,28.0,30.01,SSW,202,0.0,0.0,98,0.00,,,0.00,WUHU21623XXSP,2013-01-24 05:32:00,
2013-01-23 21:37:00,27.9,27.3,30.02,SSW,202,0.0,0.0,98,0.00,,,0.00,WUHU21623XXSP,2013-01-24 05:37:00,
2013-01-23 21:42:00,27.5,26.9,30.02,SSW,202,0.0,0.0,98,0.00,,,0.00,WUHU21623XXSP,2013-01-24 05:42:00,
2013-01-23 21:47:00,27.0,26.2,30.03,SSW,202,0.0,0.0,97,0.00,,,0.00,WUHU21623XXSP,2013-01-24 05:47:00,
2013-01-23 21:52:00,26.2,25.4,30.03,SSW,202,0.0,0.0,97,0.00,,,0.00,WUHU21623XXSP,2013-01-24 05:52:00,
2013-01-23 21:58:00,25.7,24.9,30.04,SSW,202,0.0,0.0,97,0.00,,,0.00,WUHU21623XXSP,2013-01-24 05:58:00,
2013-01-23 22:03:00,25.5,24.7,30.04,SSW,202,0.0,0.0,97,0.00,,,0.00,WUHU21623XXSP,2013-01-24 06:03:00,
2013-01-23 22:08:00,25.0,23.9,30.04,SSW,202,0.0,0.0,96,0.00,,,0.00,WUHU21623XXSP,2013-01-24 06:08:00,
2013-01-23 22:13:00,24.6,23.5,30.05,SSW,202,0.0,0.0,96,0.00,,,0.00,WUHU21623XXSP,2013-01-24 06:13:00,
2013-01-23 22:18:00,24.1,23.0,30.04,SSW,202,0.0,0.0,96,0.00,,,0.00,WUHU21623XXSP,2013-01-24 06:18:00,
2013-01-23 22:23:00,23.9,22.8,30.05,SSW,202,0.0,0.0,96,0.00,,,0.00,WUHU21623XXSP,2013-01-24 06:23:00,
2013-01-23 22:28:00,23.7,22.6,30.06,SSW,202,0.0,0.0,96,0.00,,,0.00,WUHU21623XXSP,2013-01-24 06:28:00,
2013-01-23 22:33:00,23.5,22.4,30.05,SSW,202,0.0,0.0,96,0.00,,,0.00,WUHU21623XXSP,2013-01-24 06:33:00,
2013-01-23 22:38:00,23.4,22.3,30.06,SSW,202,0.0,0.0,96,0.00,,,0.00,WUHU21623XXSP,2013-01-24 06:38:00,
2013-01-23 22:43:00,23.2,22.1,30.06,SSW,202,0.0,0.0,96,0.00,,,0.00,WUHU21623XXSP,2013-01-24 06:43:00,
2013-01-23 22:48:00,23.2,22.1,30.06,SSW,202,0.0,0.0,96,0.00,,,0.00,WUHU21623XXSP,2013-01-24 06:48:00,
2013-01-23 22:53:00,22.8,21.7,30.07,SSW,202,0.0,0.0,96,0.00,,,0.00,WUHU21623XXSP,2013-01-24 06:53:00,
2013-01-23 22:58:00,22.8,21.7,30.07,SSW,202,0.0,0.0,96,0.00,,,0.00,WUHU21623XXSP,2013-01-24 06:58:00,
2013-01-23 23:03:00,22.6,21.5,30.07,SSW,202,0.0,0.0,96,0.00,,,0.00,WUHU21623XXSP,2013-01-24 07:03:00,
2013-01-23 23:08:00,22.6,21.5,30.08,SSW,202,0.0,0.0,96,0.00,,,0.00,WUHU21623XXSP,2013-01-24 07:08:00,
2013-01-23 23:13:00,22.5,21.4,30.08,SSW,202,0.0,0.0,96,0.00,,,0.00,WUHU21623XXSP,2013-01-24 07:13:00,
2013-01-23 23:18:00,22.5,21.4,30.09,SSW,202,0.0,0.0,96,0.00,,,0.00,WUHU21623XXSP,2013-01-24 07:18:00,
2013-01-23 23:23:00,22.3,21.2,30.09,SSW,202,0.0,0.0,96,0.00,,,0.00,WUHU21623XXSP,2013-01-24 07:23:00,
2013-01-23 23:29:00,22.1,21.0,30.09,SSW,202,0.0,0.0,96,0.00,,,0.00,WUHU21623XXSP,2013-01-24 07:29:00,
2013-01-23 23:34:00,21.9,20.8,30.09,SSW,202,0.0,0.0,96,0.00,,,0.00,WUHU21623XXSP,2013-01-24 07:34:00,
2013-01-23 23:39:00,21.9,20.6,30.08,SSW,202,0.0,0.0,95,0.00,,,0.00,WUHU21623XXSP,2013-01-24 07:39:00,
2013-01-23 23:44:00,21.9,20.8,30.09,SSW,202,0.0,0.0,96,0.00,,,0.00,WUHU21623XXSP,2013-01-24 07:44:00,
2013-01-23 23:49:00,21.7,20.6,30.09,SSW,202,0.0,0.0,96,0.00,,,0.00,WUHU21623XXSP,2013-01-24 07:49:00,
2013-01-23 23:54:00,21.7,20.6,30.09,SSW,202,0.0,0.0,96,0.00,,,0.00,WUHU21623XXSP,2013-01-24 07:54:00,
2013-01-23 23:59:00,21.7,20.6,30.10,SSW,202,0.0,0.0,96,0.00,,,0.00,WUHU21623XXSP,2013-01-24 07:59:00,